TimeEST,TemperatureF,Dew PointF,Humidity,Sea Level PressureIn,VisibilityMPH,Wind Direction,Wind SpeedMPH,Gust SpeedMPH,PrecipitationIn,Events,Conditions,WindDirDegrees,DateUTC
12:53 AM,10.0,8.1,92,30.19,4.0,SSW,3.5,-,N/A,,Clear,200,2012-12-31 05:53:00
1:53 AM,14.0,9.0,80,30.18,6.0,WSW,4.6,-,N/A,,Haze,240,2012-12-31 06:53:00
2:53 AM,19.9,16.0,85,30.15,7.0,SW,6.9,-,N/A,,Clear,220,2012-12-31 07:53:00
3:53 AM,21.9,17.1,82,30.12,8.0,SSW,9.2,-,N/A,,Clear,210,2012-12-31 08:53:00
4:53 AM,24.1,18.0,77,30.09,9.0,SW,11.5,-,N/A,,Clear,220,2012-12-31 09:53:00
5:53 AM,25.0,18.0,75,30.07,10.0,SW,12.7,-,N/A,,Clear,220,2012-12-31 10:53:00
6:53 AM,24.1,19.0,81,30.07,9.0,SW,9.2,-,N/A,,Clear,230,2012-12-31 11:53:00
7:53 AM,25.0,19.9,81,30.05,9.0,SW,9.2,-,N/A,,Clear,230,2012-12-31 12:53:00
8:53 AM,26.1,19.9,78,30.04,7.0,SW,8.1,-,N/A,,Clear,220,2012-12-31 13:53:00
9:53 AM,28.0,21.0,75,30.04,8.0,SW,10.4,-,N/A,,Clear,220,2012-12-31 14:53:00
10:53 AM,28.9,21.9,75,30.04,9.0,SW,12.7,-,N/A,,Clear,220,2012-12-31 15:53:00
11:53 AM,30.9,21.9,69,30.01,10.0,SW,11.5,-,N/A,,Clear,220,2012-12-31 16:53:00
12:11 PM,30.2,23.0,75,29.97,10.0,SW,10.4,-,N/A,,Mostly Cloudy,230,2012-12-31 17:11:00
12:53 PM,32.0,23.0,69,29.97,10.0,SW,11.5,-,N/A,,Overcast,230,2012-12-31 17:53:00
1:53 PM,34.0,25.0,70,29.96,10.0,WSW,19.6,24.2,N/A,,Overcast,250,2012-12-31 18:53:00
2:53 PM,34.0,26.1,73,29.95,10.0,West,12.7,-,N/A,,Overcast,260,2012-12-31 19:53:00
3:53 PM,34.0,26.1,73,29.98,10.0,WSW,10.4,-,N/A,,Overcast,250,2012-12-31 20:53:00
4:53 PM,34.0,26.1,73,29.96,10.0,WSW,11.5,-,N/A,,Overcast,250,2012-12-31 21:53:00
5:53 PM,34.0,27.0,75,29.97,10.0,WSW,11.5,-,N/A,,Overcast,250,2012-12-31 22:53:00
6:53 PM,34.0,27.0,75,29.97,10.0,West,11.5,-,N/A,,Overcast,270,2012-12-31 23:53:00
7:53 PM,34.0,27.0,75,30.00,10.0,WNW,9.2,-,N/A,,Overcast,290,2013-01-01 00:53:00
8:24 PM,32.0,26.6,80,29.97,6.0,NW,11.5,19.6,N/A,,Haze,310,2013-01-01 01:24:00
8:53 PM,30.9,26.1,82,30.01,6.0,NW,12.7,18.4,N/A,,Haze,310,2013-01-01 01:53:00
11:03 PM,28.4,19.4,69,30.01,10.0,WNW,11.5,-,N/A,,Mostly Cloudy,290,2013-01-01 04:03:00
11:53 PM,28.0,17.1,63,30.04,10.0,WNW,9.2,-,N/A,,Overcast,300,2013-01-01 04:53:00